Volver al catálogo

STARLINK-35372

ActivoComunicacionesVLEO
NORAD 66476·PAYLOAD·🇺🇸 United States

Lanzado Nov 15, 2025 desde Cape Canaveral Space Force Station

Loading…

Próximos Pases (próximas 24 horas)

TLE

ActualizadoSource: CelesTrak SupGP

Época: Sep 14, 2026, 21:20 UTC

1 66476C 25262W   26257.88937500 -.00022460  00000+0 -81381-3 0  2574
2 66476  43.0011 307.7329 0001482 273.7413   0.8994 15.27576877    19

Sigue STARLINK-35372 en tiempo real con AllMySat

Download on the App Store